Location: Ferintosh
(52.7647°N, 112.9692°W)
Time: 21:12:33
(UTC+00:00)

A-11 Canister half - Pass Details

Date: 27 May 2024
Orbit: 1524 x 1683 km, 47.3° (Epoch: 19 June)

Event Time Altitude Azimuth Distance (km) Brightness Sun altitude
Rises 01:10:28 0° 171° (S) 4,662 11.3 19.6°
Reaches altitude 10° 01:16:19 10° 142° (SE) 3,698 10.6 18.7°
Maximum altitude 01:19:12 12° 124° (ESE) 3,570 10.5 18.3°
Drops below altitude 10° 01:22:06 10° 105° (ESE) 3,727 10.5 17.9°
Sets 01:28:01 0° 77° (ENE) 4,749 11.0 17.0°
